Flag for France Weather past 2 weeks in Lille, France

Now
54 °F

Mostly cloudy.


Feels Like: 51 °F
Forecast: 49 / 60 °F
Wind: 8 mph from South

Location: Lille Airport

Current Time: Oct 24, 2014 at 4:44:47 PM

Latest Report: Oct 24, 2014 at 4:00 PM


Visibility: 5 mi

Pressure: 30.04 "Hg

Humidity: 94%

Dew point: 52 °F

Location of LilleLocation

Historic Weather in Lille — Graph

°F

Lille temperature yesterday

Maximum temperature yesterday: 57 °F (at 1:00 PM)
Minimum temperature yesterday: 50 °F (at 12:00 AM)
Average temperature yesterday: 53 °F

Past Weeks' High & Low Weather Summary

 TemperatureHumidityPressure
High73 °F (Oct 18, 4:00 PM)100% (Oct 11, 7:00 AM)30.24 "Hg (Oct 11, 7:00 AM)
Low45 °F (Oct 22, 4:00 AM)52% (Oct 9, 4:00 PM)29.53 "Hg (Oct 13, 4:00 AM)
Average57 °F84%29.89 "Hg
* Reported Oct 9 3:00 PM — Oct 24 3:30 PM, Lille, Weather by CustomWeather, © 2014

Note: Actual official high and low records may vary slightly from our data, if they occured in-between our weather recording intervals... More about our weather records

Advertising

Lille weather history for previous 24 hours

 ConditionsComfort  
Time TempWeatherWind HumidityBarometerVisibility
3:30 PM
Oct 24
54 °FLight rain. Mostly cloudy.8 mph94%30.04 "Hg4 mi
3:00 PM54 °FLight rain. Partly sunny.8 mph94%30.04 "Hg3 mi
2:30 PM54 °FLight rain. Partly sunny.10 mph94%30.04 "Hg4 mi
2:00 PM54 °FLight rain. Partly sunny.10 mph94%30.07 "Hg3 mi
1:30 PM54 °FLight rain. Partly sunny.12 mph94%30.07 "HgN/A
1:00 PM54 °FLight rain. Partly sunny.12 mph88%30.07 "HgN/A
12:30 PM54 °FPartly sunny.13 mph88%30.07 "HgN/A
12:00 PM54 °FPartly sunny.12 mph88%30.09 "HgN/A
11:30 AM54 °FPartly sunny.13 mph88%30.09 "HgN/A
11:00 AM54 °FPartly sunny.12 mph88%30.09 "HgN/A
10:30 AM54 °FPartly sunny.13 mph88%30.09 "HgN/A
10:00 AM52 °FLight rain. Partly sunny.12 mph94%30.09 "HgN/A
9:30 AM52 °FLight rain. Partly sunny.10 mph94%30.09 "HgN/A
9:00 AM52 °FPassing clouds.10 mph94%30.09 "HgN/A
8:30 AM52 °FOvercast.12 mph94%30.09 "HgN/A
8:00 AM52 °FMostly cloudy.9 mph94%30.09 "HgN/A
7:30 AM52 °FOvercast.12 mph88%30.07 "HgN/A
7:00 AM52 °FOvercast.10 mph88%30.09 "HgN/A
6:30 AM52 °FOvercast.10 mph94%30.09 "HgN/A
6:00 AM52 °FLight rain. Mostly cloudy.8 mph94%30.09 "HgN/A
5:30 AM52 °FLight rain. Mostly cloudy.8 mph88%30.09 "HgN/A
5:00 AM52 °FMostly cloudy.9 mph88%30.09 "HgN/A
4:30 AM52 °FMostly cloudy.8 mph88%30.09 "HgN/A
4:00 AM52 °FMostly cloudy.8 mph88%30.12 "HgN/A
3:30 AM52 °FMostly cloudy.10 mph88%30.12 "HgN/A
3:00 AM52 °FOvercast.10 mph82%30.12 "HgN/A
2:30 AM52 °FMostly cloudy.9 mph82%30.12 "HgN/A
2:00 AM52 °FOvercast.9 mph82%30.12 "HgN/A
1:30 AM52 °FOvercast.8 mph82%30.15 "HgN/A
1:00 AM54 °FOvercast.10 mph77%30.15 "HgN/A
12:30 AM54 °FOvercast.9 mph72%30.15 "HgN/A
12:00 AM54 °FOvercast.8 mph72%30.15 "HgN/A
11:30 PM
Oct 23
54 °FOvercast.5 mph72%30.15 "HgN/A
11:00 PM54 °FOvercast.7 mph72%30.15 "HgN/A
10:30 PM54 °FOvercast.8 mph77%30.18 "HgN/A
10:00 PM54 °FOvercast.9 mph77%30.18 "HgN/A
9:30 PM54 °FOvercast.8 mph82%30.18 "HgN/A
9:00 PM54 °FOvercast.9 mph82%30.18 "HgN/A
8:30 PM54 °FOvercast.8 mph82%30.18 "HgN/A
8:00 PM55 °FPassing clouds.9 mph77%30.18 "HgN/A
7:30 PM55 °FPartly sunny.9 mph77%30.18 "HgN/A
7:00 PM55 °FPartly sunny.7 mph77%30.15 "HgN/A
6:30 PM55 °FPartly sunny.8 mph77%30.15 "HgN/A
6:00 PM55 °FPartly sunny.7 mph77%30.15 "HgN/A
5:30 PM57 °FOvercast.10 mph72%30.18 "HgN/A
5:00 PM57 °FOvercast.8 mph72%30.18 "HgN/A
4:30 PM57 °FOvercast.8 mph72%30.18 "HgN/A
4:00 PM57 °FOvercast.12 mph72%30.18 "HgN/A
Weather by CustomWeather, © 2014

See weather overviewHow to use our weather pages